Total_Precipitation_Accumulation
0.00 0.01 0.05 0.12 0.25 0.39 0.39 0.15 0.05 0.02 0.02 0.02 0.03 0.03 0.04 0.04 0.06 0.15 0.07 0.01 0.01 0.00 0.01 0.01 0.01 0.01 0.01 0.01 0.02 0.02 0.03 0.02 0.02 0.02 0.02 0.01 0.01 0.00 0.01 0.01 0.01 0.01 0.01 0.01 0.01 0.01 0.00 0.00 0.00
0.00 0.01 0.04 0.11 0.29 0.65 0.45 0.08 0.04 0.02 0.02 0.02 0.04 0.05 0.02 0.02 0.03 0.03 0.02 0.01 0.00 0.00 0.01 0.01 0.01 0.01 0.01 0.01 0.02 0.02 0.02 0.02 0.02 0.02 0.01 0.01 0.01 0.01 0.01 0.01 0.01 0.02 0.02 0.01 0.01 0.00 0.00 0.00 0.00
0.00 0.00 0.03 0.07 0.22 0.41 0.31 0.07 0.03 0.02 0.03 0.03 0.04 0.03 0.01 0.01 0.03 0.02 0.01 0.00 0.00 0.00 0.00 0.01 0.01 0.01 0.01 0.01 0.01 0.01 0.02 0.02 0.02 0.02 0.01 0.01 0.01 0.01 0.01 0.01 0.01 0.02 0.02 0.01 0.01 0.01 0.00 0.00 0.00
0.00 0.00 0.01 0.02 0.10 0.17 0.14 0.08 0.05 0.03 0.02 0.02 0.02 0.01 0.01 0.01 0.01 0.01 0.00 0.00 0.00 0.00 0.00 0.01 0.02 0.02 0.01 0.01 0.01 0.01 0.01 0.02 0.02 0.02 0.02 0.02 0.03 0.02 0.02 0.01 0.02 0.02 0.02 0.01 0.01 0.01 0.00 0.00 0.00
0.00 0.00 0.00 0.01 0.06 0.11 0.13 0.12 0.07 0.04 0.02 0.02 0.01 0.02 0.02 0.01 0.01 0.01 0.00 0.00 0.00 0.00 0.00 0.01 0.02 0.03 0.02 0.02 0.02 0.02 0.02 0.02 0.02 0.02 0.02 0.02 0.03 0.03 0.02 0.02 0.02 0.03 0.02 0.02 0.01 0.01 0.01 0.00 0.00
0.00 0.00 0.00 0.01 0.04 0.09 0.14 0.12 0.09 0.07 0.03 0.02 0.02 0.02 0.02 0.02 0.01 0.01 0.01 0.00 0.00 0.01 0.01 0.02 0.03 0.03 0.03 0.03 0.03 0.03 0.03 0.03 0.03 0.02 0.02 0.02 0.03 0.03 0.02 0.02 0.02 0.04 0.05 0.04 0.02 0.01 0.01 0.01 0.01
0.00 0.00 0.00 0.01 0.04 0.07 0.08 0.10 0.10 0.07 0.03 0.03 0.03 0.03 0.06 0.04 0.01 0.02 0.02 0.01 0.01 0.01 0.01 0.02 0.03 0.04 0.04 0.04 0.04 0.04 0.04 0.04 0.04 0.04 0.04 0.04 0.04 0.04 0.04 0.04 0.03 0.04 0.06 0.06 0.05 0.03 0.02 0.02 0.02
0.00 0.00 0.00 0.00 0.02 0.05 0.04 0.05 0.08 0.07 0.05 0.03 0.05 0.06 0.12 0.07 0.02 0.02 0.03 0.02 0.02 0.02 0.02 0.02 0.04 0.05 0.06 0.05 0.06 0.06 0.05 0.05 0.05 0.05 0.05 0.05 0.06 0.06 0.07 0.07 0.07 0.07 0.09 0.09 0.09 0.08 0.07 0.08 0.08
0.00 0.00 0.00 0.00 0.00 0.02 0.02 0.04 0.06 0.07 0.07 0.06 0.10 0.14 0.08 0.06 0.03 0.03 0.04 0.04 0.03 0.02 0.02 0.02 0.03 0.05 0.05 0.05 0.05 0.06 0.07 0.08 0.07 0.08 0.07 0.08 0.09 0.14 0.19 0.22 0.26 0.24 0.25 0.24 0.21 0.22 0.22 0.20 0.13
0.00 0.00 0.00 0.00 0.00 0.01 0.01 0.02 0.03 0.05 0.07 0.13 0.25 0.28 0.12 0.07 0.06 0.04 0.04 0.08 0.06 0.04 0.04 0.04 0.04 0.05 0.06 0.05 0.07 0.09 0.09 0.11 0.10 0.12 0.18 0.21 0.26 0.25 0.17 0.32 0.43 0.46 0.56 0.54 0.51 0.68 0.57 0.40 0.28
0.00 0.00 0.00 0.00 0.00 0.01 0.01 0.02 0.02 0.04 0.08 0.22 0.33 0.31 0.17 0.11 0.11 0.07 0.07 0.12 0.09 0.08 0.06 0.07 0.08 0.10 0.10 0.10 0.09 0.10 0.12 0.22 0.21 0.21 0.30 0.45 0.46 0.35 0.24 0.30 0.50 0.71 0.91 0.85 0.96 1.14 0.82 0.74 0.80
0.00 0.00 0.00 0.00 0.00 0.01 0.01 0.02 0.03 0.03 0.04 0.13 0.36 0.35 0.16 0.13 0.10 0.11 0.15 0.18 0.17 0.15 0.16 0.20 0.19 0.21 0.22 0.24 0.25 0.24 0.28 0.37 0.40 0.51 0.57 0.74 0.77 0.67 0.57 0.57 0.64 0.86 1.05 1.35 1.40 1.33 1.26 1.23 1.15
0.00 0.00 0.00 0.00 0.00 0.00 0.00 0.01 0.02 0.03 0.03 0.04 0.13 0.20 0.13 0.10 0.14 0.18 0.24 0.27 0.30 0.32 0.44 0.52 0.49 0.52 0.59 0.63 0.64 0.54 0.57 0.59 0.63 0.76 0.85 1.08 1.24 1.18 1.16 1.09 1.03 0.95 1.10 1.40 1.60 1.57 1.62 1.59 1.50
0.00 0.00 0.00 0.00 0.00 0.00 0.01 0.02 0.04 0.05 0.04 0.04 0.08 0.15 0.18 0.18 0.23 0.29 0.35 0.41 0.46 0.55 0.74 0.89 0.97 1.11 1.12 1.05 1.05 1.03 0.86 0.78 0.79 0.95 1.10 1.31 1.49 1.68 1.75 1.64 1.48 1.20 1.19 1.27 1.55 1.68 1.87 1.78 1.64
0.00 0.00 0.00 0.01 0.01 0.02 0.02 0.05 0.07 0.08 0.08 0.08 0.09 0.11 0.17 0.28 0.35 0.39 0.47 0.56 0.72 0.92 1.10 1.27 1.47 1.65 1.63 1.50 1.37 1.23 1.11 1.08 1.19 1.30 1.35 1.55 1.76 1.93 1.93 1.68 1.37 1.21 1.34 1.42 1.35 1.37 1.66 1.48 1.35
0.00 0.00 0.01 0.02 0.02 0.03 0.04 0.10 0.11 0.11 0.13 0.12 0.12 0.14 0.17 0.24 0.32 0.38 0.49 0.70 1.01 1.24 1.37 1.59 1.75 1.88 1.94 1.88 1.84 1.62 1.44 1.46 1.45 1.43 1.43 1.53 1.71 1.74 1.74 1.38 1.03 1.14 1.37 1.45 1.39 1.33 1.41 1.38 1.44
0.00 0.00 0.01 0.04 0.04 0.04 0.06 0.14 0.14 0.16 0.16 0.16 0.16 0.19 0.23 0.27 0.35 0.44 0.60 0.94 1.33 1.63 1.93 2.18 2.30 2.21 2.24 2.23 2.20 2.04 1.84 1.63 1.46 1.45 1.41 1.32 1.27 1.32 1.40 1.10 0.94 1.11 1.26 1.28 1.25 1.37 1.46 1.34 1.41
0.03 0.04 0.06 0.09 0.08 0.08 0.15 0.20 0.21 0.21 0.22 0.23 0.23 0.24 0.27 0.31 0.43 0.59 0.83 1.19 1.57 1.94 2.41 2.74 2.76 2.56 2.29 2.06 1.80 1.75 1.67 1.59 1.48 1.40 1.28 1.15 1.06 1.08 1.24 1.12 1.00 1.13 1.21 1.14 1.28 1.38 1.46 1.26 1.23
0.04 0.05 0.10 0.12 0.09 0.10 0.22 0.32 0.36 0.35 0.41 0.38 0.34 0.32 0.30 0.38 0.55 0.76 1.06 1.39 1.73 2.11 2.58 2.78 2.73 2.27 1.79 1.60 1.41 1.31 1.20 1.17 1.22 1.23 1.18 1.13 1.04 1.03 1.17 1.07 0.98 0.97 0.99 0.95 1.10 1.21 1.20 0.99 1.20
0.07 0.08 0.13 0.15 0.09 0.09 0.22 0.45 0.56 0.58 0.46 0.40 0.33 0.36 0.36 0.49 0.73 1.10 1.52 1.74 1.70 1.97 2.46 2.50 2.04 1.57 1.28 1.13 1.01 0.90 0.88 0.87 0.86 0.83 0.81 0.80 0.82 0.86 0.94 0.91 0.82 0.78 0.80 0.79 0.87 1.00 1.00 0.88 1.16
0.10 0.10 0.13 0.13 0.11 0.15 0.27 0.51 0.73 0.67 0.43 0.32 0.28 0.29 0.36 0.56 0.86 1.19 1.54 1.62 1.51 1.73 1.77 1.47 1.17 0.91 0.72 0.62 0.57 0.60 0.58 0.57 0.52 0.46 0.46 0.52 0.58 0.59 0.59 0.60 0.64 0.68 0.69 0.70 0.76 0.91 1.03 0.90 0.93
0.06 0.06 0.06 0.05 0.08 0.17 0.31 0.60 0.88 0.77 0.52 0.39 0.33 0.35 0.37 0.40 0.53 0.77 0.96 1.08 1.15 1.16 1.00 0.82 0.71 0.60 0.54 0.54 0.48 0.53 0.48 0.43 0.39 0.34 0.34 0.39 0.42 0.42 0.41 0.43 0.53 0.60 0.66 0.70 0.65 0.70 0.86 0.91 0.83
0.04 0.03 0.04 0.05 0.06 0.12 0.28 0.54 0.82 0.87 0.75 0.57 0.45 0.42 0.34 0.27 0.31 0.42 0.47 0.53 0.60 0.62 0.57 0.47 0.55 0.61 0.56 0.53 0.47 0.43 0.37 0.32 0.29 0.31 0.34 0.39 0.42 0.41 0.38 0.37 0.39 0.49 0.57 0.64 0.66 0.68 0.73 0.80 0.78
0.03 0.04 0.07 0.12 0.15 0.33 0.36 0.44 0.70 0.72 0.71 0.64 0.49 0.35 0.25 0.22 0.26 0.30 0.29 0.25 0.25 0.27 0.27 0.27 0.34 0.44 0.43 0.42 0.41 0.38 0.35 0.33 0.30 0.29 0.30 0.32 0.36 0.38 0.38 0.38 0.40 0.42 0.43 0.46 0.53 0.59 0.64 0.69 0.72
0.04 0.05 0.14 0.33 0.47 0.56 0.37 0.43 0.66 0.59 0.65 0.68 0.45 0.25 0.18 0.17 0.18 0.21 0.22 0.18 0.16 0.15 0.14 0.13 0.15 0.25 0.28 0.29 0.33 0.32 0.32 0.31 0.29 0.26 0.25 0.26 0.26 0.31 0.35 0.37 0.41 0.47 0.47 0.48 0.49 0.55 0.62 0.68 0.73
0.04 0.04 0.07 0.10 0.15 0.26 0.33 0.72 0.75 0.47 0.49 0.40 0.21 0.11 0.09 0.09 0.09 0.11 0.11 0.11 0.09 0.08 0.07 0.06 0.06 0.08 0.10 0.13 0.18 0.19 0.22 0.24 0.25 0.31 0.29 0.25 0.24 0.27 0.34 0.39 0.42 0.45 0.51 0.53 0.60 0.63 0.68 0.73 0.76
0.04 0.03 0.03 0.04 0.05 0.14 0.35 0.64 0.52 0.31 0.32 0.20 0.11 0.05 0.04 0.05 0.05 0.05 0.05 0.05 0.04 0.04 0.04 0.04 0.04 0.04 0.05 0.05 0.08 0.10 0.14 0.18 0.24 0.30 0.28 0.24 0.24 0.23 0.24 0.31 0.42 0.44 0.46 0.54 0.63 0.68 0.72 0.78 0.83
0.04 0.03 0.03 0.03 0.04 0.07 0.22 0.49 0.52 0.38 0.31 0.17 0.08 0.04 0.03 0.03 0.03 0.03 0.03 0.03 0.03 0.02 0.02 0.02 0.03 0.03 0.03 0.03 0.03 0.05 0.11 0.19 0.26 0.30 0.26 0.23 0.21 0.20 0.20 0.24 0.32 0.35 0.38 0.47 0.60 0.68 0.75 0.86 0.94
0.05 0.04 0.04 0.04 0.05 0.06 0.11 0.25 0.24 0.25 0.20 0.11 0.06 0.04 0.01 0.01 0.01 0.01 0.01 0.01 0.01 0.01 0.01 0.02 0.02 0.02 0.02 0.02 0.03 0.07 0.16 0.21 0.27 0.42 0.40 0.25 0.19 0.17 0.16 0.17 0.19 0.20 0.23 0.32 0.48 0.68 0.80 0.91 0.96
0.05 0.05 0.04 0.05 0.05 0.04 0.06 0.14 0.10 0.11 0.09 0.06 0.04 0.02 0.01 0.01 0.00 0.00 0.00 0.01 0.01 0.01 0.01 0.01 0.02 0.02 0.02 0.02 0.02 0.05 0.15 0.20 0.23 0.30 0.33 0.26 0.21 0.18 0.15 0.14 0.13 0.12 0.15 0.24 0.40 0.57 0.73 0.87 0.99